Overview Statistics Trail Chart Weather Telemetry Raw packets
 

This is the latest recevied weather packets stored in our database for station/object KC3UTO. If no packets are shown the sender has not sent any weather packets the latest 10 day(s).

<< 103 104 105 106 107 108 109 >>
Time Temp. Humidity Pressure Rain* Wind** Luminosity Snow
1787786267 25.56° C 61% 1015.9 hPa 0 mm - 19 W/m² -
1787785963 26.11° C 62% 1015.9 hPa 0 mm - 24 W/m² -
1787785659 26.11° C 64% 1016 hPa 0 mm - 26 W/m² -
1787785358 26.11° C 63% 1015.9 hPa 0 mm - 31 W/m² -
1787785057 26.11° C 63% 1016.2 hPa 0 mm - 42 W/m² -
1787784752 26.11° C 62% 1016.2 hPa 0 mm - 46 W/m² -
1787784452 26.11° C 61% 1016.3 hPa 0 mm - 45 W/m² -
1787784151 26.11° C 59% 1016.3 hPa 0 mm - 43 W/m² -
1787783848 26.11° C 59% 1016.4 hPa 0 mm - 54 W/m² -
1787783547 26.11° C 61% 1016.7 hPa 0 mm - 52 W/m² -
1787783238 26.11° C 59% 1016.5 hPa 0 mm - 60 W/m² -
1787782933 26.11° C 58% 1016.6 hPa 0 mm - 58 W/m² -
1787782632 26.11° C 58% 1016.5 hPa 0 mm - 39 W/m² -
1787782327 26.67° C 58% 1016.6 hPa 0 mm - 50 W/m² -
1787782023 26.67° C 58% 1016.7 hPa 0 mm - 94 W/m² -
1787781718 26.67° C 56% 1016.4 hPa 0 mm - 97 W/m² -
1787781416 26.67° C 56% 1016.4 hPa 0 mm - 69 W/m² -
1787781115 26.67° C 56% 1016.4 hPa 0 mm - 41 W/m² -
1787780815 26.67° C 56% 1016.5 hPa 0 mm - 40 W/m² -
1787780514 27.22° C 54% 1016.5 hPa 0 mm - 64 W/m² -
1787780210 27.22° C 52% 1016.4 hPa 0 mm - 83 W/m² -
1787779905 27.78° C 53% 1016.2 hPa 0 mm - 118 W/m² -
1787779600 27.22° C 55% 1016.2 hPa 0 mm - 137 W/m² -
1787779300 27.22° C 54% 1016.4 hPa 0 mm - 96 W/m² -
1787778994 27.78° C 52% 1016.3 hPa 0 mm - 95 W/m² -

* Rain latest hour (hover to see other rain measurements)
** Current wind speed in m/s (hover to see current wind gust speed)